Regional Weather Roundup
Issued by NWS

Home | Current Version | Previous Version | Graphics & Text | Print | Product List | Glossary On
Versions: 1 2 3 4 5 6 7 8 9 10 11 12 13 14 15 16 17 18 19 20 21 22 23 24 25 26 27 28 29 30 31 32 33 34 35 36 37 38 39 40 41 42 43 44 45 46 47 48 49 50
925
ASUS44 KJAN 300710
RWRMS

MISSISSIPPI HOURLY WEATHER ROUNDUP
NATIONAL WEATHER SERVICE JACKSON MS
200 AM CDT SAT AUG 30 2014

NOTE: "FAIR: INDICATES FEW OR NO CLOUDS BELOW 12,000 FEET WITH NO
SIGNIFICANT WEATHER AND/OR OBSTRUCTIONS TO VISIBILITY.

MSZ001>002-007>008-010>013-018>021-025>028-034>036-300800-
NORTHWEST MISSISSIPPI

CITY           SKY/WX    TMP DP  RH WIND       PRES   REMARKS
CLARKSDALE       N/A     77  73  88 CALM      30.00S
CLEVELAND      FAIR      78  74  86 S7        30.00S
GREENWOOD      CLOUDY    76  70  82 S5        30.01F
GREENVILLE     CLOUDY    79  72  79 S7        29.99F
GRENADA        FAIR      77  68  73 CALM      30.01F
OLIVE BRANCH   PTCLDY    75  73  94 S3        30.00F
OXFORD         FAIR      75  66  73 CALM      30.04S
TUNICA         PTSUNNY   73  72  94 S3        30.00S
$$

MSZ003>006-009-014>017-022>024-029>033-037>039-300800-
NORTHEAST MISSISSIPPI

CITY           SKY/WX    TMP DP  RH WIND       PRES   REMARKS
BELMONT        FAIR      71  67  90 CALM      30.04F
COLUMBUS AFB   MOCLDY    75  68  79 CALM      30.02F
CORINTH          N/A     72  68  88 CALM      30.02S
GOLDN TRIANGLE CLOUDY    75  66  73 S5        30.03F
STARKVILLE     FAIR      73  68  83 CALM      30.02F
TUPELO         MOCLDY    75  67  76 SW3       30.02F
$$

MSZ040-058-300800-
CENTRAL MISSISSIPPI

CITY           SKY/WX    TMP DP  RH WIND       PRES   REMARKS
JACKSON INTL   CLOUDY    76  71  85 S5        30.02F
JACKSON HAWKNS CLOUDY    77  70  79 S8        30.03F
MERIDIAN KEY   CLOUDY    76  71  85 S6        30.05R
MERIDIAN NAS   CLOUDY    78  71  79 CALM      30.05R
RAYMOND        FAIR      75  72  88 MISG      30.02F
VICKSBURG      CLOUDY    78  72  81 S3        30.00F
$$

MSZ059>079-300800-
SOUTH MISSISSIPPI

CITY           SKY/WX    TMP DP  RH WIND       PRES   REMARKS
BROOKHAVEN     FAIR      75  73  94 CALM      30.04F
COLUMBIA       FAIR      73  73 100 CALM      30.02F
HATTIESBURG    CLOUDY    77  74  90 CALM      30.04F
MCCOMB         CLOUDY    75  73  93 SE5       30.02F
NATCHEZ        CLOUDY    75  72  88 SE6       30.00F
PINE BELT      CLOUDY    73  72  94 CALM      30.05F
$$

MSZ080>082-300800-
COASTAL MISSISSIPPI

CITY           SKY/WX    TMP DP  RH WIND       PRES   REMARKS
BILOXI         PTCLDY    82  77  84 S8        30.02F HX  90
PASCAGOULA     MOCLDY    78  75  90 CALM      30.03F
GULFPORT       PTCLDY    82  77  84 S8        30.01F HX  90
$$



USA.gov is the U.S. government's official web portal to all federal, state and local government web resources and services.